Louisville Bowman, KY

9:02 AM EST on December 09, 2019 (GMT -0500)
Bowman

Weather History for KLOU - May, 2019

Change the Weather History Date:

Sunday, May 5, 2019

  Actual Average Record
Temperature  
Mean Temperature 62 °F 63 °F  
Max Temperature 72 °F 73 °F 94 °F (1949)
Min Temperature 52 °F 53 °F 36 °F (1954)
Degree Days  
Heating Degree Days 3 4  
Month to date heating degree days 5 21  
Since 1 July heating degree days 4059 4212  
Cooling Degree Days 0 2  
Month to date cooling degree days 16 9  
Year to date cooling degree days 33 43  
Growing Degree Days 13 (Base 50)    
Moisture  
Dew Point 51 °F    
Average Humidity 65    
Maximum Humidity 93    
Minimum Humidity 37    
Precipitation  
Precipitation 0.01 in 0.19 in 1.66 in (2018)
Month to date precipitation 1.79 0.93  
Year to date precipitation 25.20 15.73  
Sea Level Pressure  
Sea Level Pressure 29.85 in    
Wind  
Wind Speed 5 mph (NNW)    
Max Wind Speed 13 mph    
Max Gust Speed 20 mph    
Visibility 9 miles    
Events Rain    
T = Trace of Precipitation, MM = Missing Value Source: NWS Daily Summary

Daily Weather History Graph

Daily Weather History Graph

Search for Another Location

Airport or City:

Astronomy

May. 05, 2019 Rise Set
Actual Time 6:41 AM EDT 8:37 PM EDT
Civil Twilight 6:13 AM EDT 9:06 PM EDT
Nautical Twilight 5:38 AM EDT 9:41 PM EDT
Astronomical Twilight 5:00 AM EDT 10:19 PM EDT
Moon 7:25 AM EDT (5/5) 9:30 PM EDT (5/5)
Length of Visible Light 14h 53m
Length of Day
13h 55m
New Moon, 1% of the Moon is Illuminated
May 5
New Moon
May 11
First Quarter
May 18
Full
May 26
Last Quarter
Jun 3
New

Hourly Weather History & Observations

Time (EDT) Temp. Dew Point Humidity Pressure Visibility Wind Dir Wind Speed Gust Speed Precip Events Conditions
12:32 AM 57.0 °F 55.0 °F 93% 29.83 in 8.0 mi NNW 4.6 mph - N/A   Overcast
12:53 AM 57.0 °F 55.0 °F 93% 29.82 in 6.0 mi North 6.9 mph - N/A   Overcast
1:44 AM 57.0 °F 54.0 °F 89% 29.82 in 5.0 mi North 8.1 mph - 0.01 in Rain Light Rain
1:53 AM 55.9 °F 54.0 °F 93% 29.81 in 4.0 mi North 4.6 mph - 0.01 in Rain Light Rain
2:53 AM 55.0 °F 54.0 °F 96% 29.80 in 5.0 mi NNW 9.2 mph - 0.00 in   Overcast
3:17 AM 55.0 °F 53.1 °F 93% 29.80 in 7.0 mi North 8.1 mph - N/A   Overcast
3:37 AM 55.0 °F 53.1 °F 93% 29.80 in 7.0 mi North 6.9 mph - N/A   Overcast
3:53 AM 55.0 °F 53.1 °F 93% 29.80 in 8.0 mi North 6.9 mph - N/A   Overcast
4:00 AM 55.0 °F 53.1 °F 93% 29.80 in 8.0 mi North 6.9 mph - N/A   Overcast
4:07 AM 55.0 °F 53.1 °F 93% 29.80 in 8.0 mi North 5.8 mph - N/A   Overcast
4:20 AM 55.0 °F 53.1 °F 93% 29.80 in 6.0 mi North 5.8 mph - N/A   Overcast
4:53 AM 55.0 °F 52.0 °F 89% 29.80 in 7.0 mi North 6.9 mph - N/A   Overcast
5:53 AM 55.0 °F 52.0 °F 89% 29.80 in 9.0 mi NNW 3.5 mph - N/A   Overcast
6:53 AM 54.0 °F 52.0 °F 93% 29.82 in 9.0 mi NNW 3.5 mph - 0.00 in   Overcast
7:04 AM 54.0 °F 52.0 °F 93% 29.82 in 10.0 mi NNW 4.6 mph - N/A   Overcast
7:30 AM 54.0 °F 52.0 °F 93% 29.83 in 8.0 mi Variable 4.6 mph - N/A   Overcast
7:53 AM 54.0 °F 51.1 °F 90% 29.84 in 9.0 mi NW 5.8 mph - N/A   Overcast
8:53 AM 54.0 °F 51.1 °F 90% 29.86 in 10.0 mi NNW 4.6 mph - N/A   Overcast
9:28 AM 54.0 °F 50.0 °F 86% 29.86 in 9.0 mi NNW 5.8 mph - N/A   Overcast
9:43 AM 54.0 °F 51.1 °F 90% 29.87 in 9.0 mi NNW 5.8 mph - N/A   Overcast
9:53 AM 54.0 °F 51.1 °F 90% 29.87 in 9.0 mi NW 6.9 mph - N/A   Overcast
10:53 AM 55.9 °F 51.1 °F 84% 29.87 in 10.0 mi North 6.9 mph - N/A   Overcast
11:33 AM 60.1 °F 53.1 °F 78% 29.88 in 10.0 mi Variable 6.9 mph - N/A   Overcast
11:53 AM 61.0 °F 54.0 °F 78% 29.88 in 10.0 mi NW 6.9 mph - N/A   Mostly Cloudy
12:04 PM 63.0 °F 54.0 °F 72% 29.89 in 10.0 mi Variable 5.8 mph - N/A   Scattered Clouds
12:53 PM 66.0 °F 54.0 °F 65% 29.88 in 10.0 mi North 10.4 mph - N/A   Mostly Cloudy
1:53 PM 68.0 °F 52.0 °F 56% 29.87 in 10.0 mi North 10.4 mph 17.3 mph N/A   Partly Cloudy
2:53 PM 68.0 °F 48.9 °F 50% 29.87 in 10.0 mi WNW 8.1 mph - N/A   Clear
3:53 PM 70.0 °F 48.0 °F 46% 29.86 in 10.0 mi NW 8.1 mph - N/A   Clear
4:53 PM 71.1 °F 44.1 °F 38% 29.86 in 10.0 mi North 8.1 mph - N/A   Clear
5:53 PM 72.0 °F 44.1 °F 37% 29.86 in 10.0 mi Variable 5.8 mph - N/A   Clear
6:53 PM 71.1 °F 44.1 °F 38% 29.88 in 10.0 mi North - - N/A   Clear
7:53 PM 70.0 °F 43.0 °F 38% 29.88 in 10.0 mi NNW 4.6 mph - N/A   Clear
8:53 PM 63.0 °F 45.0 °F 52% 29.89 in 10.0 mi Calm Calm - N/A   Clear
9:53 PM 57.9 °F 48.0 °F 70% 29.91 in 10.0 mi NW 3.5 mph - N/A   Clear
10:53 PM 55.9 °F 48.9 °F 77% 29.93 in 10.0 mi Calm Calm - N/A   Clear
11:53 PM 55.0 °F 48.0 °F 77% 29.94 in 10.0 mi Calm Calm - N/A   Clear